TimeEST,TemperatureF,Dew PointF,Humidity,Sea Level PressureIn,VisibilityMPH,Wind Direction,Wind SpeedMPH,Gust SpeedMPH,PrecipitationIn,Events,Conditions,WindDirDegrees,DateUTC
12:56 AM,33.1,19.9,59,30.01,10.0,North,12.7,-,N/A,,Overcast,360,2013-01-18 05:56:00
2:56 AM,30.9,15.1,52,30.06,10.0,North,15.0,20.7,N/A,,Overcast,360,2013-01-18 07:56:00
3:56 AM,30.0,15.1,54,30.08,10.0,NNE,11.5,19.6,N/A,,Overcast,20,2013-01-18 08:56:00
4:56 AM,28.9,15.1,56,30.09,10.0,North,11.5,-,0.00,Snow,Light Snow,10,2013-01-18 09:56:00
5:56 AM,28.0,14.0,56,30.16,10.0,North,12.7,-,0.00,,Mostly Cloudy,350,2013-01-18 10:56:00
6:56 AM,27.0,10.0,49,30.22,10.0,North,12.7,-,N/A,,Mostly Cloudy,350,2013-01-18 11:56:00
7:56 AM,26.1,10.0,51,30.27,10.0,North,17.3,24.2,N/A,,Scattered Clouds,350,2013-01-18 12:56:00
8:56 AM,26.1,7.0,44,30.32,10.0,North,18.4,25.3,N/A,,Scattered Clouds,350,2013-01-18 13:56:00
9:56 AM,27.0,6.1,41,30.38,10.0,North,17.3,23.0,N/A,,Partly Cloudy,350,2013-01-18 14:56:00
10:56 AM,27.0,6.1,41,30.40,10.0,NW,16.1,-,N/A,,Scattered Clouds,310,2013-01-18 15:56:00
11:56 AM,28.0,3.9,36,30.40,10.0,NNW,15.0,24.2,N/A,,Scattered Clouds,340,2013-01-18 16:56:00
12:56 PM,28.0,3.9,36,30.40,10.0,NW,12.7,19.6,N/A,,Partly Cloudy,310,2013-01-18 17:56:00
1:56 PM,28.9,3.9,35,30.40,10.0,NW,8.1,17.3,N/A,,Partly Cloudy,320,2013-01-18 18:56:00
2:56 PM,28.9,3.9,35,30.41,10.0,North,12.7,19.6,N/A,,Partly Cloudy,350,2013-01-18 19:56:00
3:56 PM,28.0,3.9,36,30.43,10.0,NNW,10.4,-,N/A,,Partly Cloudy,330,2013-01-18 20:56:00
4:56 PM,26.1,3.9,39,30.44,10.0,West,5.8,-,N/A,,Scattered Clouds,270,2013-01-18 21:56:00
5:56 PM,25.0,5.0,43,30.47,10.0,West,5.8,-,N/A,,Scattered Clouds,260,2013-01-18 22:56:00
6:56 PM,25.0,6.1,45,30.49,10.0,Calm,Calm,-,N/A,,Partly Cloudy,0,2013-01-18 23:56:00
7:56 PM,21.9,10.0,60,30.48,10.0,Calm,Calm,-,N/A,,Partly Cloudy,0,2013-01-19 00:56:00
8:56 PM,21.9,10.0,60,30.47,10.0,Calm,Calm,-,N/A,,Partly Cloudy,0,2013-01-19 01:56:00
9:56 PM,21.0,10.0,63,30.46,10.0,Calm,Calm,-,N/A,,Partly Cloudy,0,2013-01-19 02:56:00
10:56 PM,21.0,10.9,65,30.43,10.0,Calm,Calm,-,N/A,,Clear,0,2013-01-19 03:56:00
11:56 PM,25.0,12.9,60,30.42,10.0,WSW,3.5,-,N/A,,Clear,250,2013-01-19 04:56:00